This demonstration page uses our WeatherBlox Daily Observations layout. Learn more.

Left ArrowRight Arrow

41.12389, -100.76542

Hourly Observations for November 25, 2022

Temp ( °F °C ) Dew Point ( °F °C ) Humidity (%) Winds ( mph kmh ) Pressure ( in mb ) Visibility ( mi km ) Precip ( " mm )
12:53 am 00:53 Clear 16 -8.9 10 -12.2 77 77 NW 7 11 30.46 1032 10 16 0.00 0.00
1:53 am 01:53 Clear 15 -9.4 9 -12.8 76 76 WNW 5 7 30.45 1031 10 16 0.00 0.00
2:53 am 02:53 Clear 18 -7.8 11 -11.7 73 73 NW 5 7 30.42 1030 10 16 0.00 0.00
3:53 am 03:53 Clear 17 -8.3 10 -12.2 73 73 WNW 3 6 30.43 1030 10 16 0.00 0.00
4:53 am 04:53 Clear 17 -8.3 12 -11.1 80 80 NNW 3 6 30.42 1030 10 16 0.00 0.00
5:53 am 05:53 Clear 16 -8.9 11 -11.7 80 80 NW 9 15 30.43 1030 10 16 0.00 0.00
6:53 am 06:53 Clear 19 -7.2 12 -11.1 74 74 NW 9 15 30.41 1030 10 16 0.00 0.00
7:53 am 07:53 Sunny 23 -5 15 -9.4 71 71 WSW 6 9 30.42 1030 10 16 0.00 0.00
8:53 am 08:53 Sunny 28 -2.2 17 -8.3 63 63 WSW 5 7 30.41 1030 10 16 0.00 0.00
9:53 am 09:53 Sunny 35 1.7 19 -7.2 52 52 WSW 8 13 30.39 1029 10 16 0.00 0.00
10:53 am 10:53 Sunny 43 6.1 19 -7.2 38 38 W 5 7 30.35 1028 10 16 0.00 0.00
11:53 am 11:53 Sunny 48 8.9 19 -7.2 31 31 SW 5 7 30.33 1027 10 16 0.00 0.00
12:53 pm 12:53 Sunny 56 13.3 19 -7.2 23 23 Calm 30.27 1025 10 16 0.00 0.00
1:53 pm 13:53 Sunny 59 15 17 -8.3 19 19 SSW 6 9 30.23 1024 10 16 0.00 0.00
2:53 pm 14:53 Sunny 61 16.1 18 -7.8 19 19 SW 6 9 30.20 1023 10 16 0.00 0.00
3:53 pm 15:53 Sunny 61 16.1 20 -6.7 20 20 SSW 9 15 30.19 1022 10 16 0.00 0.00
4:53 pm 16:53 Sunny 57 13.9 19 -7.2 22 22 S 8 13 30.18 1022 10 16 0.00 0.00
5:53 pm 17:53 Clear 49 9.4 18 -7.8 29 29 SSW 6 9 30.18 1022 10 16 0.00 0.00
6:53 pm 18:53 Clear 38 3.3 17 -8.3 42 42 Calm 30.18 1022 10 16 0.00 0.00
7:53 pm 19:53 Clear 33 0.6 17 -8.3 51 51 SE 5 7 30.16 1021 10 16 0.00 0.00
8:53 pm 20:53 Clear 33 0.6 17 -8.3 51 51 Calm 30.15 1021 10 16 0.00 0.00
9:53 pm 21:53 Clear 27 -2.8 16 -8.9 63 63 Calm 30.13 1020 10 16 0.00 0.00
10:53 pm 22:53 Clear 27 -2.8 16 -8.9 63 63 VRB 3 6 30.11 1020 10 16 0.00 0.00
11:53 pm 23:53 Clear 25 -3.9 15 -9.4 65 65 Calm 30.07 1018 10 16 0.00 0.00

Powered by AerisWeather